#timestamp,LO_Frequency,Hit 
1505059215.8,286047001.7,N
1505059235.6,286047005.0,N
1505059255.5,286047007.2,P
1505059275.3,286047007.0,N
1505059295.1,286047007.2,N
1505059315.9,286047006.0,N
1505059335.7,286047001.5,N
1505059355.5,286047004.1,N
1505059375.3,286047005.5,N
1505059395.2,286047002.9,N
1505059415.0,286047004.4,N
1505059415.9,286047004.4,N
1505059435.7,286047000.0,N
1505059455.6,286046998.3,N
1505059475.4,286047002.4,N
1505059495.2,286046997.4,N
1505059515.1,286046993.4,N
1505059516.0,286046993.4,N
1505059535.8,286046994.5,N
1505059555.6,286046991.8,N
1505059575.5,286046995.5,N
1505059595.3,286046996.0,N
1505059615.1,286046993.9,N
1505059635.9,286046992.6,N
1505059655.7,286046993.8,N
1505059675.5,286046994.0,N
1505059695.3,286046990.1,N
1505059715.2,286046991.9,N
1505059735.0,286046992.7,N
1505059735.9,286046992.7,N
1505059755.7,286046992.3,N
1505059775.6,286046990.2,N
1505059795.4,286046987.4,N
1505059815.2,286046985.6,N
1505059835.1,286046986.9,N
1505059836.0,286046986.9,N
1505059855.8,286046988.9,N
1505059875.6,286046991.6,N
1505059895.5,286046987.3,N
1505059915.3,286046991.5,N
1505059935.1,286046992.3,N
1505059955.9,286046994.6,N
1505059975.7,286046990.2,N
1505059995.5,286046992.2,N
1505060015.4,286046988.9,P
1505060035.2,286046997.1,N
1505060055.0,286046995.0,N
1505060055.9,286046995.0,N
1505060075.8,286046995.4,N
1505060095.6,286046996.4,N
1505060115.4,286046994.7,N
1505060135.3,286046991.3,P
1505060155.1,286046993.8,P
1505060156.0,286046993.8,P
1505060175.8,286046993.9,P
1505060195.7,286047000.6,N
1505060215.5,286046999.8,N
1505060235.3,286047002.7,N
1505060255.2,286047003.6,N
1505060275.9,286047008.6,N
1505060295.7,286047006.3,N
1505060315.6,286047007.6,N
1505060335.4,286047007.1,N
1505060355.2,286047005.2,N
1505060375.1,286047003.3,N
1505060376.0,286047003.3,N
1505060395.8,286047002.9,N
1505060415.6,286047002.0,N
1505060435.4,286047002.2,N
1505060455.3,286047002.0,N
1505060475.1,286047004.4,N
1505060495.8,286047003.9,N
1505060515.7,286047002.2,N
1505060535.5,286046999.1,N
1505060555.3,286046998.1,N
1505060575.2,286047003.9,N
1505060595.9,286047001.8,N
1505060615.7,286047002.0,N
1505060635.6,286047001.3,N
1505060655.4,286047005.1,N
1505060675.2,286047003.6,N
1505060695.1,286047002.0,N
1505060696.0,286047002.0,N
1505060715.8,286047002.2,N
1505060735.6,286046999.8,N
1505060755.5,286046998.8,N
1505060775.3,286047000.2,N
1505060795.1,286046999.7,N
1505060815.8,286046999.4,N
1505060835.7,286047000.8,N
1505060855.5,286046998.1,N
1505060875.3,286046996.9,N
1505060895.2,286046999.4,N
1505060915.9,286046998.8,N
1505060935.7,286046997.2,N
1505060955.6,286046995.4,N
1505060975.4,286046995.6,N
1505060995.2,286046999.6,N
1505061015.1,286046999.2,N
1505061016.0,286046999.2,N
1505061035.8,286046999.1,N
1505061055.6,286046998.0,N
1505061075.5,286046997.7,N
1505061095.3,286046997.2,N
1505061115.1,286046995.3,N
1505061135.9,286046994.4,N
1505061155.7,286046995.0,N
1505061175.5,286046997.9,N
1505061195.3,286046997.2,N
1505061215.2,286046999.6,N
1505061235.0,286046995.7,N
1505061235.9,286046995.7,N
1505061255.7,286046997.0,N
1505061275.6,286046994.1,P
1505061295.4,286046996.0,N
1505061315.2,286046996.4,N
1505061335.1,286046999.6,N
1505061336.0,286046999.6,N
1505061355.8,286046995.7,N
1505061375.6,286046995.1,N
1505061395.5,286046996.6,N
1505061415.3,286046996.6,N
1505061435.1,286046998.0,N
1505061455.9,286046999.2,N
1505061475.7,286046997.3,N
1505061495.5,286046994.9,P
1505061515.4,286046999.5,N
1505061535.2,286046999.6,N
1505061555.0,286046993.3,P
1505061556.0,286046993.3,P
1505061575.8,286047001.3,N
1505061595.6,286047003.0,N
1505061615.4,286047003.3,N
1505061635.3,286047003.7,N
1505061655.1,286047003.1,N
1505061675.8,286047002.2,N
1505061695.7,286047000.3,N
1505061715.5,286047002.6,N
1505061735.3,286047001.4,N
1505061755.2,286047004.8,N
1505061775.9,286047005.2,N
1505061795.7,286047005.7,N
1505061815.6,286047004.9,N
1505061835.4,286047002.9,N
1505061855.2,286047004.1,N
1505061875.0,286046998.4,N
1505061875.9,286046998.4,N
1505061895.8,286046992.5,N
1505061915.6,286046990.6,N
1505061935.4,286046988.9,N
1505061955.3,286046991.0,N
1505061975.1,286046990.8,N
1505061995.8,286046991.6,N
1505062015.7,286046984.9,N
1505062035.5,286046984.1,N
1505062055.3,286046986.3,N
1505062075.2,286046989.2,N
1505062095.9,286046987.8,N
1505062115.7,286046984.4,N
1505062135.6,286046982.4,N
1505062155.4,286046985.2,N
1505062175.2,286046988.1,N
1505062195.0,286046985.5,N
1505062196.0,286046985.5,N
1505062215.8,286046983.9,N
1505062235.6,286046984.5,N
1505062255.4,286046983.9,N
1505062275.3,286046984.8,N
1505062295.1,286046983.0,N
1505062315.8,286046982.5,N
1505062335.7,286046985.2,N
1505062355.5,286046984.0,N
1505062375.3,286046983.0,N
1505062395.2,286046981.4,P
1505062415.0,286046993.5,N
1505062415.9,286046993.5,N
1505062435.7,286046996.4,N
1505062455.6,286046994.0,N
1505062475.4,286046991.3,N
1505062495.2,286046990.4,N
1505062515.1,286046993.7,N
1505062516.0,286046993.7,N
1505062535.1,286046997.4,N
1505062536.0,286046997.4,N
1505062555.8,286046993.3,N
1505062575.7,286046996.7,N
1505062595.5,286046997.0,N
1505062615.3,286046995.9,N
1505062635.1,286046994.1,N
1505062655.9,286046992.3,N
1505062675.7,286046987.1,P
1505062695.6,286046994.5,N
1505062715.4,286046993.8,N
1505062735.2,286046995.0,N
1505062755.0,286047002.3,N
1505062755.9,286047002.3,N
1505062775.8,286047008.7,N
1505062795.6,286047017.2,N
